Date String (YYYY-MM-DD hh:mm:ss) UTC,Instrument flags,Ambient pressure (hPa),Sample flow (lpm),Bypass flow (lpm),Sample temperature (°C),Ambient temperature (°C),ASC tube jacket temperature (°C),LED temperature (°C),Box temperature (°C),Sample RH (%),Span deviation,Mass concentration (μg/m³),Mass concentration (μg/m³),Mass concentration (μg/m³)
DateTimeUTC,F1_M11,P_M11,Q1_M11,Q2_M11,T1_M11,T2_M11,T3_M11,T4_M11,T5_M11,U1_M11,ZSPAN_M11,X2_M11,X0_M11,X1_M11
2022-11-23 01:00:00,,0826.5,5.00,0.00,26.1,24.5,00.0,35.2,27.9,07.2,0000.0,0004.09,0010.66,0003.26
2022-11-23 01:01:00,,0826.5,5.00,0.00,26.1,24.5,00.0,35.2,27.8,07.1,0000.0,0004.07,0010.97,0003.26
2022-11-23 01:02:00,,0826.5,5.00,0.00,26.1,24.5,00.0,35.2,27.9,07.1,0000.0,0004.04,0011.58,0003.26
2022-11-23 01:03:00,,0826.5,5.00,0.00,26.1,24.5,00.0,35.1,27.8,07.1,0000.0,0003.95,0010.74,0003.25
2022-11-23 01:04:00,,0826.5,5.00,0.00,26.1,24.5,00.0,35.1,27.7,07.3,0000.0,0003.89,0011.05,0003.24
2022-11-23 01:05:00,,0826.5,5.00,0.00,26.1,24.4,00.0,35.1,27.7,07.8,0000.0,0003.87,0011.10,0003.24
2022-11-23 01:06:00,,0826.5,5.00,0.00,26.1,24.4,00.0,35.1,27.8,07.7,0000.0,0003.84,0010.79,0003.24
2022-11-23 01:07:00,,0826.5,5.01,0.00,26.0,24.4,00.0,35.1,27.8,08.1,0000.0,0003.86,0010.60,0003.26
2022-11-23 01:08:00,,0826.5,5.00,0.00,26.0,24.4,00.0,35.1,27.7,07.4,0000.0,0003.87,0010.53,0003.27
2022-11-23 01:09:00,,0826.5,5.00,0.00,26.0,24.4,00.0,35.1,27.7,06.8,0000.0,0003.89,0010.70,0003.28
2022-11-23 01:10:00,,0826.5,5.01,0.00,26.0,24.4,00.0,35.0,27.8,06.8,0000.0,0003.91,0011.11,0003.28
2022-11-23 01:11:00,,0826.5,5.01,0.00,26.0,24.5,00.0,35.0,27.8,06.7,0000.0,0003.95,0011.16,0003.29
2022-11-23 01:12:00,,0826.5,4.99,0.00,26.0,24.5,00.0,35.0,27.8,06.8,0000.0,0003.99,0011.10,0003.29
2022-11-23 01:13:00,,0826.5,5.00,0.00,26.0,24.5,00.0,35.0,27.7,06.9,0000.0,0004.00,0010.38,0003.29
2022-11-23 01:14:00,,0826.5,5.00,0.00,26.0,24.5,00.0,35.0,27.7,06.8,0000.0,0003.98,0009.95,0003.29
2022-11-23 01:15:00,,0826.5,5.00,0.00,26.0,24.4,00.0,35.0,27.6,07.1,0000.0,0004.02,0009.75,0003.29
2022-11-23 01:16:00,,0826.5,5.00,0.00,26.0,24.4,00.0,35.0,27.7,07.6,0000.0,0004.02,0009.54,0003.30
2022-11-23 01:17:00,,0826.5,5.00,0.00,26.0,24.4,00.0,35.0,27.7,07.4,0000.0,0004.01,0009.52,0003.29
2022-11-23 01:18:00,,0826.5,5.00,0.00,26.0,24.4,00.0,35.0,27.6,07.3,0000.0,0003.98,0009.22,0003.26
2022-11-23 01:19:00,,0826.5,5.00,0.00,26.0,24.3,00.0,35.0,27.6,07.2,0000.0,0003.97,0008.92,0003.24
2022-11-23 01:20:00,,0826.5,5.00,0.00,25.9,24.3,00.0,35.0,27.6,07.2,0000.0,0003.91,0008.57,0003.23
2022-11-23 01:21:00,,0826.5,5.00,0.00,25.9,24.3,00.0,34.9,27.5,07.2,0000.0,0003.85,0009.01,0003.22
2022-11-23 01:22:00,,0826.5,5.00,0.00,25.9,24.3,00.0,34.9,27.4,07.3,0000.0,0003.85,0009.49,0003.21
2022-11-23 01:23:00,,0826.5,5.01,0.00,25.9,24.3,00.0,34.9,27.4,07.4,0000.0,0003.84,0010.09,0003.21
2022-11-23 01:24:00,,0826.5,5.00,0.00,25.8,24.3,00.0,34.9,27.5,07.6,0000.0,0003.84,0010.33,0003.20
2022-11-23 01:25:00,,0826.5,5.00,0.00,25.8,24.2,00.0,34.9,27.4,07.6,0000.0,0003.84,0010.40,0003.20
2022-11-23 01:26:00,,0826.5,5.00,0.00,25.8,24.2,00.0,34.9,27.4,07.5,0000.0,0003.82,0010.71,0003.19
2022-11-23 01:27:00,,0826.5,5.01,0.00,25.8,24.2,00.0,34.9,27.5,07.5,0000.0,0003.84,0011.05,0003.20
2022-11-23 01:28:00,,0826.4,4.98,0.00,25.8,24.2,00.0,34.9,27.5,07.4,0000.0,0003.87,0011.17,0003.21
2022-11-23 01:29:00,,0826.5,5.01,0.00,25.8,24.2,00.0,34.8,27.4,07.5,0000.0,0003.87,0011.21,0003.22
2022-11-23 01:30:00,,0826.5,5.01,0.00,25.8,24.2,00.0,34.8,27.4,07.4,0000.0,0003.84,0011.13,0003.22
2022-11-23 01:31:00,,0826.5,5.00,0.00,25.8,24.1,00.0,34.8,27.5,07.3,0000.0,0003.83,0011.07,0003.22
2022-11-23 01:32:00,,0826.5,4.98,0.00,25.8,24.1,00.0,34.8,27.5,07.2,0000.0,0003.84,0010.22,0003.23
2022-11-23 01:33:00,,0826.5,5.01,0.00,25.7,24.1,00.0,34.8,27.5,07.2,0000.0,0003.83,0009.75,0003.23
2022-11-23 01:34:00,,0826.5,5.01,0.00,25.7,24.1,00.0,34.8,27.4,07.4,0000.0,0003.77,0008.98,0003.23
2022-11-23 01:35:00,,0826.5,5.00,0.00,25.7,24.1,00.0,34.8,27.4,07.5,0000.0,0003.80,0009.62,0003.22
2022-11-23 01:36:00,,0826.5,5.00,0.00,25.7,24.1,00.0,34.8,27.4,07.4,0000.0,0003.82,0009.91,0003.21
2022-11-23 01:37:00,,0826.5,5.00,0.00,25.7,24.0,00.0,34.7,27.3,07.3,0000.0,0003.84,0009.55,0003.22
2022-11-23 01:38:00,,0826.5,5.00,0.00,25.7,24.0,00.0,34.7,27.3,07.3,0000.0,0003.85,0009.82,0003.20
2022-11-23 01:39:00,,0826.5,5.00,0.00,25.7,24.0,00.0,34.7,27.3,07.3,0000.0,0003.86,0010.11,0003.20
2022-11-23 01:40:00,,0826.4,4.99,0.00,25.6,24.0,00.0,34.7,27.3,07.4,0000.0,0003.86,0010.24,0003.19
2022-11-23 01:41:00,,0826.5,5.00,0.00,25.6,24.0,00.0,34.7,27.2,07.4,0000.0,0003.90,0010.89,0003.19
2022-11-23 01:42:00,,0826.4,5.00,0.00,25.6,24.0,00.0,34.7,27.2,07.3,0000.0,0003.92,0012.97,0003.18
2022-11-23 01:43:00,,0826.4,5.01,0.00,25.6,24.0,00.0,34.7,27.2,07.3,0000.0,0003.90,0014.27,0003.18
2022-11-23 01:44:00,,0826.3,5.00,0.00,25.6,24.0,00.0,34.6,27.2,07.3,0000.0,0003.89,0014.10,0003.18
2022-11-23 01:45:00,,0826.3,4.98,0.00,25.6,24.0,00.0,34.6,27.2,07.3,0000.0,0003.90,0013.81,0003.18
2022-11-23 01:46:00,,0826.5,5.01,0.00,25.5,23.9,00.0,34.6,27.1,07.3,0000.0,0003.88,0013.58,0003.19
2022-11-23 01:47:00,,0826.5,5.01,0.00,25.5,23.9,00.0,34.6,27.2,07.3,0000.0,0003.90,0013.68,0003.21
2022-11-23 01:48:00,,0826.5,4.98,0.00,25.5,23.9,00.0,34.6,27.2,07.4,0000.0,0003.90,0013.65,0003.22
2022-11-23 01:49:00,,0826.5,5.00,0.00,25.5,23.9,00.0,34.6,27.2,07.4,0000.0,0003.88,0013.61,0003.24
2022-11-23 01:50:00,,0826.5,5.00,0.00,25.5,23.9,00.0,34.6,27.1,07.4,0000.0,0003.89,0013.56,0003.24
2022-11-23 01:51:00,,0826.4,5.01,0.00,25.5,23.8,00.0,34.6,27.1,07.5,0000.0,0003.89,0013.74,0003.25
2022-11-23 01:52:00,,0826.5,4.99,0.00,25.5,23.8,00.0,34.5,27.1,07.5,0000.0,0003.87,0014.01,0003.25
2022-11-23 01:53:00,,0826.4,5.00,0.00,25.4,23.8,00.0,34.5,27.0,07.4,0000.0,0003.88,0012.78,0003.27
2022-11-23 01:54:00,,0826.4,5.01,0.00,25.4,23.8,00.0,34.5,27.0,07.4,0000.0,0003.90,0011.32,0003.28
2022-11-23 01:55:00,,0826.5,5.00,0.00,25.4,23.8,00.0,34.5,27.0,07.5,0000.0,0003.91,0011.26,0003.28
2022-11-23 01:56:00,,0826.4,5.00,0.00,25.4,23.8,00.0,34.5,27.1,07.5,0000.0,0003.92,0011.27,0003.28
2022-11-23 01:57:00,,0826.4,4.99,0.00,25.4,23.8,00.0,34.5,27.1,07.4,0000.0,0003.94,0011.49,0003.29
2022-11-23 01:58:00,,0826.4,4.99,0.00,25.4,23.8,00.0,34.5,27.0,07.5,0000.0,0003.94,0010.87,0003.30
2022-11-23 01:59:00,,0826.4,5.00,0.00,25.4,23.7,00.0,34.5,27.0,07.5,0000.0,0003.94,0010.81,0003.29
